Location: Clandonald
(53.5720°N, 110.7141°W)
Time: 08:13:44
(UTC+00:00)

Envisat - Pass Details

Date: 25 October 2019
Orbit: 764 x 766 km, 98.1° (Epoch: 13 November)

Event Time Altitude Azimuth Distance (km) Brightness Sun altitude
Rises 13:06:12 0° 25° (NNE) 3,246 6.5 -9.8°
Reaches altitude 10° 13:09:12 10° 43° (NE) 2,313 6.0 -9.4°
Maximum altitude 13:12:46 19° 88° (E) 1,773 6.1 -8.9°
Drops below altitude 10° 13:16:19 10° 132° (SE) 2,301 6.5 -8.3°
Sets 13:19:16 0° 150° (SSE) 3,221 6.9 -7.9°
